• In Austria
  • List of Countries
  • For 7 days
  • Water Temperature
  • Satellite Maps
  • Weather Map
  • News
  • Weather Widgets
  • user-avatar
    Login

    Hourly Weather Shusha

    Today, 20 May, Sunday

    Time Temperature Precipitation Wind Pressure Humidity
    00:00 +15°C° 0.1 mm 1 mps 662 mmHg 66%
    01:00 +15°C° 0 mm 1 mps 662 mmHg 66%
    02:00 +14°C° 0 mm 1 mps 661 mmHg 66%
    03:00 +14°C° 0 mm 1 mps 661 mmHg 64%
    04:00 +14°C° 0 mm 1 mps 661 mmHg 64%
    05:00 +15°C° 0 mm 1 mps 662 mmHg 64%
    06:00 +15°C° 0 mm 1 mps 662 mmHg 63%
    07:00 +18°C° 0 mm 1 mps 662 mmHg 58%
    08:00 +18°C° 0 mm 2 mps 662 mmHg 53%
    09:00 +20°C° 0 mm 2 mps 663 mmHg 47%
    10:00 +21°C° 0 mm 2 mps 663 mmHg 45%
    11:00 +22°C° 0 mm 3 mps 663 mmHg 44%
    12:00 +24°C° 0 mm 3 mps 663 mmHg 42%
    13:00 +24°C° 0.2 mm 3 mps 662 mmHg 43%
    14:00 +24°C° 0.2 mm 3 mps 662 mmHg 43%
    15:00 +24°C° 0.2 mm 3 mps 662 mmHg 44%
    16:00 +23°C° 0.2 mm 2 mps 661 mmHg 49%
    17:00 +21°C° 0.2 mm 2 mps 661 mmHg 54%
    18:00 +20°C° 0.2 mm 2 mps 661 mmHg 60%
    19:00 +18°C° 0.2 mm 2 mps 661 mmHg 63%
    20:00 +18°C° 0.2 mm 1 mps 661 mmHg 67%
    21:00 +16°C° 0.2 mm 1 mps 661 mmHg 71%
    22:00 +16°C° 0 mm 1 mps 661 mmHg 71%
    23:00 +15°C° 0 mm 1 mps 661 mmHg 71%

    Tomorrow, 21 May, Monday

    Time Temperature Precipitation Wind Pressure Humidity
    00:00 +15°C° 0 mm 1 mps 661 mmHg 71%
    01:00 +15°C° 0 mm 1 mps 660 mmHg 72%
    02:00 +14°C° 0 mm 1 mps 660 mmHg 72%
    03:00 +14°C° 0 mm 1 mps 660 mmHg 72%
    04:00 +15°C° 0 mm 1 mps 660 mmHg 71%
    05:00 +15°C° 0 mm 1 mps 660 mmHg 69%
    06:00 +16°C° 0 mm 1 mps 661 mmHg 68%
    07:00 +18°C° 0 mm 1 mps 661 mmHg 61%
    08:00 +19°C° 0 mm 2 mps 662 mmHg 55%
    09:00 +20°C° 0 mm 2 mps 662 mmHg 48%
    10:00 +21°C° 0.2 mm 3 mps 662 mmHg 46%
    11:00 +22°C° 0.2 mm 3 mps 662 mmHg 44%
    12:00 +24°C° 0.2 mm 3 mps 662 mmHg 41%
    13:00 +24°C° 0.3 mm 3 mps 662 mmHg 42%
    14:00 +24°C° 0.3 mm 3 mps 661 mmHg 43%
    15:00 +24°C° 0.3 mm 2 mps 661 mmHg 43%
    16:00 +23°C° 0.4 mm 2 mps 661 mmHg 48%
    17:00 +21°C° 0.4 mm 2 mps 661 mmHg 53%
    18:00 +21°C° 0.4 mm 1 mps 661 mmHg 57%
    19:00 +20°C° 0.2 mm 1 mps 661 mmHg 61%
    20:00 +18°C° 0.2 mm 2 mps 661 mmHg 64%
    21:00 +16°C° 0.2 mm 2 mps 661 mmHg 67%
    22:00 +16°C° 0.1 mm 2 mps 661 mmHg 67%
    23:00 +16°C° 0.1 mm 2 mps 661 mmHg 67%

    Day after tomorrow, 22 May, Tuesday

    Time Temperature Precipitation Wind Pressure Humidity
    00:00 +16°C° 0.1 mm 1 mps 661 mmHg 67%
    01:00 +16°C° 0 mm 1 mps 661 mmHg 68%
    02:00 +15°C° 0 mm 1 mps 661 mmHg 68%
    03:00 +15°C° 0 mm 1 mps 661 mmHg 69%
    04:00 +15°C° 0 mm 1 mps 661 mmHg 69%
    05:00 +16°C° 0 mm 1 mps 661 mmHg 69%
    06:00 +16°C° 0 mm 1 mps 662 mmHg 69%
    07:00 +18°C° 0 mm 1 mps 662 mmHg 63%
    08:00 +18°C° 0 mm 2 mps 663 mmHg 58%
    09:00 +20°C° 0 mm 2 mps 663 mmHg 52%
    10:00 +21°C° 0 mm 2 mps 663 mmHg 48%
    11:00 +23°C° 0 mm 2 mps 663 mmHg 44%
    12:00 +24°C° 0 mm 3 mps 664 mmHg 40%
    13:00 +24°C° 0.1 mm 3 mps 663 mmHg 40%
    14:00 +24°C° 0.1 mm 3 mps 663 mmHg 39%
    15:00 +24°C° 0.1 mm 3 mps 663 mmHg 39%
    16:00 +22°C° 0 mm 3 mps 663 mmHg 42%
    17:00 +23°C° 0 mm 2 mps 663 mmHg 44%
    18:00 +21°C° 0 mm 2 mps 663 mmHg 47%
    19:00 +19°C° 0 mm 2 mps 663 mmHg 50%
    20:00 +17°C° 0 mm 2 mps 663 mmHg 52%
    21:00 +16°C° 0 mm 2 mps 663 mmHg 55%
    22:00 +15°C° 0 mm 2 mps 662 mmHg 54%
    23:00 +15°C° 0 mm 2 mps 662 mmHg 53%

    23 May, Wednesday

    Time Temperature Precipitation Wind Pressure Humidity
    00:00 +13°C° 0 mm 3 mps 662 mmHg 53%
    01:00 +14°C° 0 mm 2 mps 662 mmHg 50%
    02:00 +14°C° 0 mm 2 mps 662 mmHg 47%
    03:00 +13°C° 0 mm 2 mps 662 mmHg 44%
    04:00 +14°C° 0 mm 2 mps 662 mmHg 45%
    05:00 +15°C° 0 mm 2 mps 662 mmHg 45%
    06:00 +15°C° 0 mm 2 mps 662 mmHg 46%
    07:00 +17°C° 0 mm 2 mps 663 mmHg 40%
    08:00 +19°C° 0 mm 2 mps 663 mmHg 35%
    09:00 +21°C° 0 mm 2 mps 664 mmHg 30%
    10:00 +23°C° 0 mm 2 mps 664 mmHg 29%
    11:00 +24°C° 0 mm 2 mps 663 mmHg 28%
    12:00 +24°C° 0 mm 3 mps 663 mmHg 27%
    13:00 +24°C° 0 mm 3 mps 663 mmHg 27%
    14:00 +24°C° 0 mm 3 mps 663 mmHg 28%
    15:00 +25°C° 0 mm 3 mps 662 mmHg 28%
    16:00 +24°C° 0 mm 3 mps 662 mmHg 32%
    17:00 +23°C° 0 mm 2 mps 662 mmHg 36%
    18:00 +21°C° 0 mm 2 mps 661 mmHg 39%
    19:00 +19°C° 0 mm 2 mps 661 mmHg 41%
    20:00 +17°C° 0 mm 2 mps 661 mmHg 43%
    21:00 +14°C° 0 mm 3 mps 660 mmHg 45%
    22:00 +14°C° 0 mm 3 mps 660 mmHg 45%
    23:00 +13°C° 0 mm 3 mps 660 mmHg 44%

    24 May, Thursday

    Time Temperature Precipitation Wind Pressure Humidity
    00:00 +13°C° 0 mm 3 mps 660 mmHg 44%
    01:00 +12°C° 0 mm 3 mps 659 mmHg 41%
    02:00 +12°C° 0 mm 3 mps 659 mmHg 37%
    03:00 +13°C° 0 mm 2 mps 659 mmHg 34%
    04:00 +13°C° 0 mm 2 mps 659 mmHg 34%
    05:00 +14°C° 0 mm 2 mps 659 mmHg 33%
    06:00 +14°C° 0 mm 2 mps 659 mmHg 33%
    07:00 +16°C° 0 mm 2 mps 659 mmHg 29%
    08:00 +19°C° 0 mm 2 mps 660 mmHg 25%
    09:00 +21°C° 0 mm 2 mps 660 mmHg 21%
    10:00 +21°C° 0 mm 2 mps 660 mmHg 21%
    11:00 +23°C° 0 mm 2 mps 660 mmHg 21%
    12:00 +24°C° 0 mm 2 mps 660 mmHg 21%
    13:00 +24°C° 0 mm 2 mps 660 mmHg 22%
    14:00 +24°C° 0 mm 3 mps 659 mmHg 22%
    15:00 +24°C° 0 mm 3 mps 659 mmHg 23%
    16:00 +23°C° 0 mm 2 mps 659 mmHg 27%
    17:00 +21°C° 0 mm 2 mps 658 mmHg 31%
    18:00 +21°C° 0 mm 2 mps 658 mmHg 35%
    19:00 +18°C° 0 mm 2 mps 658 mmHg 37%
    20:00 +16°C° 0 mm 2 mps 658 mmHg 39%
    21:00 +14°C° 0 mm 2 mps 657 mmHg 41%
    22:00 +14°C° 0 mm 2 mps 657 mmHg 41%
    23:00 +14°C° 0 mm 2 mps 657 mmHg 40%

    25 May, Friday

    Time Temperature Precipitation Wind Pressure Humidity
    00:00 +13°C° 0 mm 2 mps 657 mmHg 40%
    01:00 +13°C° 0 mm 2 mps 657 mmHg 39%
    02:00 +13°C° 0 mm 2 mps 657 mmHg 39%
    03:00 +13°C° 0 mm 2 mps 656 mmHg 38%
    04:00 +13°C° 0 mm 2 mps 657 mmHg 40%
    05:00 +14°C° 0 mm 2 mps 657 mmHg 41%
    06:00 +15°C° 0 mm 2 mps 658 mmHg 43%
    07:00 +17°C° 0 mm 2 mps 658 mmHg 40%
    08:00 +19°C° 0 mm 2 mps 659 mmHg 37%
    09:00 +20°C° 0 mm 2 mps 659 mmHg 34%
    10:00 +21°C° 0 mm 2 mps 659 mmHg 33%
    11:00 +23°C° 0 mm 2 mps 659 mmHg 32%
    12:00 +24°C° 0 mm 2 mps 659 mmHg 32%
    13:00 +24°C° 0 mm 2 mps 659 mmHg 32%
    14:00 +25°C° 0 mm 2 mps 658 mmHg 33%
    15:00 +25°C° 0 mm 2 mps 658 mmHg 33%
    16:00 +24°C° 0 mm 2 mps 658 mmHg 37%
    17:00 +23°C° 0 mm 2 mps 658 mmHg 40%
    18:00 +23°C° 0 mm 1 mps 658 mmHg 44%
    19:00 +21°C° 0 mm 1 mps 658 mmHg 47%
    20:00 +18°C° 0 mm 2 mps 658 mmHg 50%
    21:00 +16°C° 0 mm 2 mps 658 mmHg 53%
    22:00 +16°C° 0 mm 2 mps 658 mmHg 53%
    23:00 +15°C° 0 mm 2 mps 658 mmHg 54%
    Show more